Wednesday, April 23, 2014
16:28 UTC
  |  Log In   |  Register Free
Airport Search:

Meyers-Diver'S Airport
(3TE)

Meyers-Diver'S Airport Diagram
No Airport Diagram Available

FAA data valid effective April 3, 2014 until May 29, 2014 (unless otherwise noted).

 
 
 
 
 
 
 
 
 
 
 
 
 
 

Current Aviation Weather for Meyers-Diver'S Airport (3TE)

The most recent METAR observation for KADG was updated at: 1553 UTC
METAR Summary (Translated METAR)
KADG
231553Z AUTO 01011KT 10SM CLR 08/M02 A3010 RMK AO2 SLP200 T00831017 TSNO
KDUH
(20.4 nm SE from KADG)
231555Z AUTO 35005KT 10SM SCT031 SCT070 08/M01 A3010 RMK AO2
TAF Summary (Translated TAF)
KTOL
(20.7 nm SE from KADG)
231418Z 2314/2412 35012G18KT P6SM BKN025 TEMPO 2314/2315 SCT025 FM231500 36012G18KT P6SM SKC FM232200 08006KT P6SM SCT250 FM240200 VRB03KT P6SM SCT100 BKN250
  Airport Weather Conditions for 3TE

Current weather conditions are
not available for 3TE


The nearest NOAA weather station
is at ADG, (11.3 nm SW from 3TE)
  
 Current Weather at ADG
47° F
Fair
North winds at 12.7 mph
ADG NOAA Radar

Pressure: 30.10 in
Humidity: 50%
Wind: North at 12.7 MPH (11 KT)
Dew Point: 28.9°F
Visibility: 10.00 mi


Airport Weather Forecast for 3TE

Translated METAR and TAF for KADG
Translated METAR for KADG (1628 UTC 23 April 2014)
found at http://aviationweather.gov/adds/metars/
 
METAR text: KADG 231553Z AUTO 01011KT 10SM CLR 08/M02 A3010 RMK AO2 SLP200 T00831017 TSNO
Conditions at: KADG (ADRIAN , MI, US) observed 1553 UTC 23 April 2014
Temperature: 8.3°C (47°F)
Dewpoint: -1.7°C (29°F) [RH = 49%]
Pressure (altimeter): 30.10 inches Hg (1019.4 mb)
[Sea-level pressure: 1020.0 mb]
Winds: from the N (10 degrees) at 13 MPH (11 knots; 5.7 m/s)
Visibility: 10 or more miles (16+ km)
Ceiling: at least 12,000 feet AGL
Clouds: sky clear below 12,000 feet AGL
Weather: automated observation with no human augmentation;
there may or may not be significant weather present at this time
Translated TAF for KADG

There is no translated TAF available for this airport

Find All Airport Services Find A Hotel Find A Rental Car Find A Golf Course Find A Restaurant $100 Hamburger



FBO's on the Field
FBO Company Facility Photos Services Transportation Aviation Fuel Prices: Prices include tax
Catering Weather Repair Courtesy Rental Type 100LL JetA JetA+ MOGAS 8087
 
Village of Boyceville

This FBO has not yet been rated
FS:Independent
Last Updated: Mar-14
Login to update fuel prices
SS:
Contact Village of BoycevilleMore FBO Information
 
Add another FBO Facility Photos Catering Weather Repair Courtesy Rental Type 100LL JetA JetA+ MOGAS 8087
Services Transportation Aviation Fuel Prices: Prices include tax


GlobalAir.com Airport Resource Center model-print
model-print
model-print
model-print